This is the latest recevied weather packets stored in our database for station/object KE8AFF-13. If no packets are shown the sender has not sent any weather packets the latest 10 day(s).
| Time | Temp. | Humidity | Pressure | Rain* | Wind** | Luminosity | Snow |
|---|---|---|---|---|---|---|---|
| 1778052313 | 7.22° C | 99% | 1008.1 hPa | 1.27 mm | - | 0 W/m² | - |
| 1778052011 | 7.22° C | 99% | 1008.2 hPa | 2.29 mm | - | 0 W/m² | - |
| 1778051709 | 7.22° C | 99% | 1008.1 hPa | 2.29 mm | - | 0 W/m² | - |
| 1778051405 | 7.22° C | 99% | 1008.3 hPa | 2.29 mm | - | 0 W/m² | - |
| 1778051103 | 7.22° C | 99% | 1008.4 hPa | 3.05 mm | - | 0 W/m² | - |
| 1778050799 | 7.22° C | 99% | 1008 hPa | 1.78 mm | - | 0 W/m² | - |
| 1778050497 | 7.22° C | 99% | 1008.1 hPa | 1.27 mm | - | 0 W/m² | - |
| 1778050194 | 7.22° C | 99% | 1008.1 hPa | 1.27 mm | - | 0 W/m² | - |
| 1778049891 | 7.22° C | 99% | 1008 hPa | 1.27 mm | - | 0 W/m² | - |
| 1778049587 | 7.22° C | 99% | 1008 hPa | 1.27 mm | - | 0 W/m² | - |
| 1778049284 | 7.22° C | 99% | 1008 hPa | 1.27 mm | - | 0 W/m² | - |
| 1778048982 | 7.22° C | 99% | 1007.7 hPa | 2.29 mm | - | 0 W/m² | - |
| 1778048680 | 7.22° C | 99% | 1007.8 hPa | 2.29 mm | - | 0 W/m² | - |
| 1778048376 | 7.22° C | 99% | 1007.8 hPa | 3.05 mm | - | 0 W/m² | - |
| 1778048072 | 7.22° C | 99% | 1007.9 hPa | 3.56 mm | - | 0 W/m² | - |
| 1778047771 | 7.22° C | 99% | 1007.7 hPa | 3.56 mm | - | 0 W/m² | - |
| 1778047469 | 7.22° C | 99% | 1007.8 hPa | 3.56 mm | - | 0 W/m² | - |
| 1778047165 | 7.22° C | 99% | 1008 hPa | 3.56 mm | - | 0 W/m² | - |
| 1778046862 | 7.22° C | 99% | 1008.1 hPa | 3.56 mm | - | 0 W/m² | - |
| 1778046559 | 7.22° C | 99% | 1008.3 hPa | 3.56 mm | - | 0 W/m² | - |
| 1778046256 | 7.22° C | 99% | 1008.3 hPa | 4.83 mm | - | 0 W/m² | - |
| 1778045952 | 7.22° C | 99% | 1008.2 hPa | 4.32 mm | - | 0 W/m² | - |
| 1778045651 | 7.22° C | 99% | 1008 hPa | 3.56 mm | - | 0 W/m² | - |
| 1778045349 | 7.22° C | 99% | 1008 hPa | 1.78 mm | - | 0 W/m² | - |
| 1778045047 | 7.22° C | 99% | 1007.8 hPa | 0 mm | - | 0 W/m² | - |
* Rain latest hour (hover to see other rain measurements)
** Current wind speed in m/s (hover to see current wind gust speed)